Volver al catálogo

STARLINK-37270

ActivoComunicacionesVLEO
NORAD 68727·PAYLOAD·🇺🇸 United States

Lanzado Apr 14, 2026 desde Cape Canaveral Space Force Station

Loading…

Próximos Pases (próximas 24 horas)

TLE

ActualizadoSource: CelesTrak SupGP

Época: Sep 14, 2026, 22:51 UTC

1 68727C 26081AE  26257.95256944  .00017539  00000+0  51804-3 0  2575
2 68727  53.1576 231.3545 0001462 100.1375 166.4682 15.34390886    13

Sigue STARLINK-37270 en tiempo real con AllMySat

Download on the App Store